Regional Weather Roundup
Issued by NWS Albany, NY

Home | Current Version | Previous Version | Text Only | Print | Product List | Glossary On
Versions: 1 2 3 4 5 6 7 8 9 10 11 12 13 14 15 16 17 18 19 20 21 22 23 24 25 26 27
000
ASUS41 KALY 310210
RWRALY

NEW YORK STATE HOURLY WEATHER ROUNDUP
NATIONAL WEATHER SERVICE ALBANY NY
1000 PM EDT MON MAY 30 2016

NOTE: "FAIR" INDICATES FEW OR NO CLOUDS BELOW 12,000 FEET WITH NO
SIGNIFICANT WEATHER AND/OR NO OBSTRUCTIONS TO VISIBILITY.

NYZ032-033-038>043-046>054-057>066-NYZ062>081-082-084-310300-
EAST


CITY           SKY/WX    TMP DP  RH WIND       PRES   REMARKS
ALBANY         CLOUDY    70  66  87 S8        29.92R
GLENS FALLS    MOCLDY    73  64  73 S12       29.90R
POUGHKEEPSIE   CLOUDY    77  63  61 W7        29.93R
NEWBURGH       MOCLDY    72  64  78 W6        29.96R
MONTGOMERY     CLOUDY    71  63  75 CALM      29.95R
WHITE PLAINS   CLOUDY    70  68  93 VRB3      29.96R
NEW YORK CITY  CLOUDY    74  72  93 S9        29.94S
CENTRAL PARK   CLOUDY    74  67  78 VRB6      29.98R
$$

NYZ005>009-017-018-044>046-055-056-310300-
CENTRAL


CITY           SKY/WX    TMP DP  RH WIND       PRES   REMARKS
FULTON         CLEAR     67  54  63 NW5       29.94R
SYRACUSE       PTCLDY    70  57  63 W9        29.93R
ROME           PTCLDY    71  58  63 W5        29.94R
ELMIRA         CLEAR     70  54  56 SW3       29.96R
BINGHAMTON     CLOUDY    66  62  87 SW6       29.99R
MONTICELLO     CLOUDY    64  63  94 NW3       30.00R
$$

NYZ026>034-041>043-087-310300-
NORTH


CITY           SKY/WX    TMP DP  RH WIND       PRES   REMARKS
WATERTOWN      CLEAR     65  54  67 SW7       29.91R
FORT DRUM      NOT AVBL
MASSENA        CLEAR     70  59  68 SW8       29.84R
SARANAC LAKE   CLEAR     64  54  69 SW6       29.91R
PLATTSBURGH    MOCLDY    68  59  73 S3        29.83R
$$

NYZ001>004-010>016-019>021-085-310300-
WEST


CITY           SKY/WX    TMP DP  RH WIND       PRES   REMARKS
NIAGARA FALLS  PTCLDY    68  48  48 CALM      29.96R
BUFFALO        PTCLDY    64  58  80 S7        29.98R
DUNKIRK        CLEAR     64  55  72 SW6       29.99R
JAMESTOWN      CLEAR     66  52  59 CALM      30.03R
WELLSVILLE     CLEAR     62  53  72 W8        30.05R
ROCHESTER      MOCLDY    70  51  51 N6        29.97R
PENN YAN       CLEAR     67  57  70 SW3       29.98R
$$

             KEY
       WCI = WIND CHILL INDEX
       VSB = VISIBILITY
       HX  = HEAT INDEX
$$




USA.gov is the U.S. government's official web portal to all federal, state and local government web resources and services.